Location: Albuquerque Fire Department Station 12
(35.0715°N, 106.5166°W)
Time: 04:45:31
(UTC+00:00)

Daily predictions for brighter satellites

Satellite Brightness Start Highest point End
(mag) Time Altitude Azimuth Time Altitude Azimuth Time Altitude Azimuth
Iridium 2 4.1 01:31:54 10° S 01:35:39 69° W 01:39:26 10° N
Cosmos 1709 Rocket 4.1 01:31:44 10° N 01:38:03 90° E 01:44:24 10° S
YAOGAN 6 2.7 01:38:45 10° S 01:42:22 82° W 01:46:02 10° NNW
Cosmos 1975 2.7 01:38:29 10° S 01:42:24 67° E 01:46:22 10° NNE
Lacrosse 4 Rocket 1.3 01:38:37 10° NNW 01:42:38 61° ENE 01:46:37 10° SE
CZ-2D R/B 3.6 01:40:26 10° SE 01:44:00 41° ENE 01:47:36 10° N
SL-8 R/B 4.2 01:39:36 10° WSW 01:44:20 64° NW 01:49:07 10° NE
CSL-04 Debris 4.3 01:41:05 10° SSE 01:46:28 85° WSW 01:51:53 10° NNW
Okean 2 3.4 01:42:28 10° N 01:46:32 64° E 01:50:36 10° SSE
CSL-04 Rocket 3.8 01:41:18 10° SSE 01:46:45 85° WSW 01:52:18 10° NNW
GEOS 3 Rocket 4.1 01:42:07 10° ESE 01:46:53 41° NE 01:51:39 10° NNW
NOSS 3-3 (A) 3.9 01:41:09 10° SSW 01:46:55 88° ESE 01:53:17 10° NNE
NOSS 3-3 (C) 3.9 01:41:16 10° SSW 01:47:01 87° ESE 01:53:24 10° NNE
Cosmos 1743 3.2 01:43:47 10° SSW 01:47:34 66° W 01:51:24 10° N
Cosmos 1378 4.0 01:44:25 10° NNE 01:47:45 29° E 01:51:04 10° SE
Cosmos 1975 Rocket 3.8 01:47:12 10° NNW 01:51:38 59° W 01:55:59 10° S
Cosmos 2251 Rocket 4.4 01:48:19 10° N 01:53:04 31° ENE 01:57:47 10° SE
Envisat 4.2 01:48:27 10° S 01:53:19 47° W 01:58:13 10° NNW
Cosmos 1461 2.9 01:51:19 10° SSW 01:55:17 51° ESE 01:59:10 10° NE
Cosmos 2322 Rocket 2.8 01:52:41 10° NNW 01:58:12 60° WSW 02:03:41 10° S
Cosmos 2237 4.3 01:53:01 10° NNW 01:58:40 57° ENE 02:04:17 10° SE
Cosmos 2074 Rocket 4.2 01:52:58 10° N 01:59:01 50° E 02:05:01 10° SSE
GPS 2-05 Rocket1 2.1 01:57:34 10° W 02:00:19 81° N 02:02:09 19° E
Orbus 7S? 4.3 02:03:50 10° S 02:07:13 39° ESE 02:14:02 10° NE
CZ-4 R/B 3.5 02:04:36 10° SSW 02:07:58 29° W 02:11:23 10° NW
Cosmos 1842 3.5 02:04:25 10° N 02:08:15 49° E 02:12:04 10° SSE
Okean 2 Rocket 4.3 02:05:28 10° SSW 02:09:44 47° W 02:14:04 10° N
Okean 1 Rocket 3.4 02:07:30 10° SSE 02:11:32 40° E 02:15:35 10° NNE
COSMOS 2428 3.7 02:08:16 10° N 02:13:02 27° ENE 02:15:44 19° E
IRS-1A Rocket 4.3 02:10:37 10° SSE 02:16:23 75° ENE 02:22:05 10° N
NOAA 11 4.2 02:12:25 10° SSE 02:17:55 90° W 02:23:27 10° NNW
GP-B 3.0 02:13:33 10° N 02:18:00 72° E 02:22:24 10° S
Cosmos 2322 3.9 02:12:27 10° NNW 02:18:04 54° ENE 02:22:43 15° SE
Cosmos 2154 Rocket 4.4 02:12:19 10° N 02:18:08 41° E 02:23:53 10° SSE
USA 32 4.1 02:13:15 10° N 02:18:30 83° W 02:23:44 10° S
Cosmos 2219 Rocket 3.1 02:15:38 10° N 02:20:30 30° ENE 02:22:48 22° E
OE (NEXTSAT) 4.3 02:20:49 10° NW 02:24:18 70° NNE 02:25:38 35° ESE
Meteor 1-21 4.1 02:19:25 10° N 02:25:03 79° E 02:30:41 10° SSE
ASTEX 1 3.4 02:21:55 10° NNE 02:26:42 53° E 02:31:27 10° S
ATLAS 2AS CENTAUR R/B 3.6 02:20:04 10° NNW 02:26:53 34° NE 02:30:20 23° E
HJ-1C 3.5 02:24:09 10° S 02:27:28 77° W 02:30:51 10° NNW
Cosmos 2360 Rocket 2.5 02:25:09 10° NNW 02:30:46 68° WSW 02:36:22 10° S
ADEOS Rocket 3.8 02:24:10 10° NNE 02:31:09 44° E 02:38:26 10° SSE
Cosmos 2219 3.6 02:27:51 10° S 02:33:07 39° ESE 02:38:24 10° NE
Cosmos 2184 Rocket 4.0 02:27:47 10° N 02:34:02 86° W 02:40:19 10° S
Ariane Rocket 3.6 02:30:33 10° S 02:35:30 57° W 02:40:30 10° NNW
FREGAT/IRIS 2.4 02:36:43 45° S 02:37:26 80° W 02:40:14 10° NNW
CZ-2C R/B 3.7 02:34:29 10° N 02:38:57 81° WNW 02:43:21 10° SSW
Cosmos 1536 Rocket 4.2 02:37:33 10° NNW 02:41:48 56° W 02:46:00 10° S
Cosmos 1441 Rocket 3.5 02:40:16 10° SSW 02:44:06 68° W 02:47:54 10° N
SJ-6B 2.8 02:46:24 45° SE 02:47:31 67° ENE 02:51:37 10° N
Cosmos 1544 3.7 02:44:44 10° SSW 02:48:13 54° W 02:51:46 10° N
SPOT 3 Rocket 3.5 02:45:49 29° SSE 02:48:23 65° ENE 02:53:30 10° N
Cosmos 2297 Rocket 4.3 02:53:00 11° NE 02:53:00 11° NE 02:53:19 10° NE
COSMOS 2455 2.8 02:44:06 10° NNW 02:50:09 87° ENE 02:53:28 28° SSE
Cosmos 1025 Rocket 3.8 02:47:04 10° NNW 02:51:13 52° W 02:55:20 10° S
ARGOS 3.3 02:54:39 44° ESE 02:55:45 51° ENE 03:00:56 10° N
USA 186 2.4 03:02:38 54° W 03:02:39 54° W 03:05:58 10° NNW
Cosmos 2333 Rocket 2.1 03:00:54 10° NNW 03:06:37 77° ENE 03:07:59 53° SE
Cosmos 1707 3.2 03:05:02 10° N 03:08:04 52° N 03:08:04 52° N
SL-08 RB Rocket 4.4 03:10:17 41° NE 03:10:17 41° NE 03:13:44 10° N
Cosmos 962 Rocket 4.4 03:05:57 10° N 03:12:15 74° E 03:14:17 45° SSE
H-2A R/B 1.8 03:20:21 78° SSW 03:20:39 84° WSW 03:25:38 10° NNW
Cosmos 1371 Rocket 3.9 03:16:20 10° SSW 03:21:36 87° WNW 03:26:57 10° NNE
Cosmos 2237 Rocket 3.1 03:18:15 10° N 03:22:28 35° NE 03:22:28 35° NE
Cosmos 1295 Rocket 4.5 03:17:37 10° N 03:23:48 77° W 03:26:17 38° S
MetOp-A 4.4 03:25:04 54° NNE 03:25:04 54° NNE 03:29:32 10° N
Aureole 1 Rocket 4.0 03:19:43 10° NNW 03:24:23 42° W 03:24:53 40° WSW
In-Cosmos 22 4.2 03:26:19 10° N 03:30:52 64° NNE 03:30:52 64° NNE
Cosmos 1980 4.4 03:26:34 10° N 03:30:47 42° NNE 03:30:47 42° NNE
NOSS 0 Rocket 3.8 03:27:52 10° NNW 03:33:52 72° NE 03:33:52 72° NE
NOSS 3-4 (A) 3.9 03:27:19 10° NNW 03:34:26 61° NE 03:34:58 60° ENE
NOSS 3-4 (C) 3.9 03:27:25 10° NNW 03:34:32 61° ENE 03:35:02 59° ENE
Cosmos 2181 Rocket 4.0 03:34:25 41° SSW 03:36:43 79° W 03:43:02 10° N
Resurs 01 Rocket 3.2 03:40:11 30° N 03:40:11 30° N 03:42:28 10° N
Cosmos 2341 Rocket 4.1 03:32:02 10° N 03:38:16 74° W 03:39:29 58° SSW
DELTA 2 R/B (1) 4.2 03:36:09 10° WSW 03:40:13 49° SW 03:40:13 49° SW
SL-16 R/B 4.1 03:46:44 10° N 03:48:41 18° NNE 03:48:41 18° NNE
CZ-2C R/B 3.9 03:54:29 46° NNW 03:54:29 46° NNW 03:58:14 10° NNW
COSMOS 2428 3.8 03:52:09 10° NW 03:57:18 37° WSW 03:57:47 36° WSW
Cosmos 2218 Rocket 4.3 03:56:09 10° N 04:01:21 61° NNW 04:01:21 61° NNW
Cosmos 2219 Rocket 3.5 03:59:28 10° NW 04:04:22 32° WSW 04:04:34 32° WSW
ATLAS 2AS CENTAUR R/B 3.4 04:10:58 10° NW 04:17:48 48° WSW 04:17:48 48° WSW
Cosmos 2227 Rocket 4.1 04:24:02 22° N 04:24:02 22° N 04:26:12 10° N
Cosmos 2297 Rocket 4.2 04:34:40 24° NNW 04:34:40 24° NNW 04:37:23 10° N
Atlas Centaur 2 4.0 09:33:20 31° ESE 09:33:20 31° ESE 09:37:31 10° E
ATLAS 3B R/B 3.6 09:42:37 39° ESE 09:42:37 39° ESE 09:48:14 10° NE
Cosmos 2369 Rocket 3.3 09:52:57 41° ENE 09:52:57 41° ENE 09:57:22 10° NE
ARIANE 5 R/B 4.4 09:57:38 10° N 09:59:29 22° N 09:59:29 22° N
Cosmos 2344 3.4 10:03:25 77° NW 10:03:25 77° NW 10:11:03 10° NNE
IDEFIX/ARIANE 42P 3.8 10:17:57 10° NNE 10:22:52 39° E 10:25:03 27° SE
BREEZE-M DEB (TANK) 3.8 10:23:18 69° N 10:23:18 69° N 10:26:30 10° NE
SeaSat 1 2.8 10:20:45 10° NNE 10:25:24 60° E 10:25:24 60° E
CENTAUR R/B 2.3 10:26:15 77° SSE 10:26:31 79° ESE 10:33:07 10° NNE
ISS -1.0 10:32:22 16° E 10:32:22 16° E 10:33:16 10° ESE
ADEOS II 3.7 10:25:47 10° N 10:27:57 22° NNW 10:27:57 22° NNW
USA 238 DEB 4.4 10:36:26 35° NW 10:36:26 35° NW 10:42:38 10° NNE
USA 238 4.4 10:36:33 36° NW 10:36:33 36° NW 10:42:47 10° NNE
Centaur D-1AR AC-36 3.8 10:37:35 25° S 10:38:06 25° SSE 10:47:03 10° ESE
Unknown 4.5 10:41:55 46° NNE 10:41:55 46° NNE 10:44:57 10° NE
Unknown 4.4 10:43:33 47° NNE 10:43:33 47° NNE 10:46:39 10° NE
Meteor 1-25 Rocket 4.0 10:37:41 10° NNW 10:43:22 72° W 10:43:29 71° WSW
Unknown 4.4 10:45:07 48° NNE 10:45:07 48° NNE 10:48:17 10° NE
Unknown 4.3 10:46:43 48° NNE 10:46:43 48° NNE 10:49:56 10° NE
Meteor 1-14 Rocket 4.1 10:41:13 10° N 10:46:46 88° E 10:52:20 10° S
Unknown 4.3 10:48:18 49° N 10:48:18 49° N 10:51:34 10° NE
Cosmos 1943 Rocket 2.4 10:49:10 49° NW 10:49:10 49° NW 10:54:13 10° N
Unknown 4.2 10:51:29 49° N 10:51:29 49° N 10:54:52 10° NE
Cosmos 1707 Rocket 3.7 10:52:15 64° NNW 10:52:15 64° NNW 10:56:07 10° N
Starlink (trailer) 4.2 10:53:05 49° N 10:53:05 49° N 10:56:32 10° NE
Unknown 4.2 10:54:41 48° N 10:54:41 48° N 10:58:10 10° NE
Spot 2 4.3 10:49:40 10° N 10:53:44 58° NW 10:53:44 58° NW
Centaur AC-119 3.9 10:54:33 26° SSE 10:54:36 26° SSE 11:00:21 10° ESE
Cosmos 2263 4.1 10:54:17 58° SW 10:55:19 72° WNW 11:00:56 10° NNE
Unknown 4.2 10:56:18 48° NNW 10:56:18 48° NNW 10:59:51 10° NE
H-2A R/B 2.5 10:52:57 10° NNE 10:56:47 65° ESE 10:57:18 56° SE
Unknown 4.2 11:02:43 44° NNW 11:02:43 44° NNW 11:06:29 10° NE
Unknown 4.2 11:04:17 43° NNW 11:04:17 43° NNW 11:08:06 10° NNE
Unknown 4.2 11:05:03 42° NW 11:05:03 42° NW 11:08:52 10° NNE
Unknown 4.3 11:07:28 40° NW 11:07:28 40° NW 11:11:23 10° NNE
Cosmos 1733 Rocket 3.8 11:04:41 10° N 11:09:03 53° E 11:13:23 10° SSE
Cosmos 1315 Rocket 4.4 11:05:30 10° SSE 11:09:14 36° E 11:13:02 10° NNE
Unknown 4.4 11:09:12 37° NW 11:09:15 37° NW 11:13:07 10° NNE
Unknown 4.3 11:10:19 38° NW 11:10:26 38° NW 11:14:19 10° NNE
Sakura Rocket 4.3 11:09:27 29° SSW 11:10:42 33° SSE 11:16:03 10° ESE
PSLV R/B 3.6 11:07:28 10° N 11:11:46 59° WNW 11:12:28 51° WSW
Unknown 4.4 11:12:21 35° NW 11:12:33 35° NW 11:16:23 10° NNE
Unknown 4.4 11:13:52 35° NW 11:14:09 35° NW 11:17:59 10° NNE
NOSS 3-3 (A) 4.5 11:06:35 10° NW 11:14:22 75° WSW 11:22:44 10° SSE
NOSS 3-3 (C) 4.5 11:06:41 10° NW 11:14:28 76° WSW 11:22:51 10° SSE
Unknown 4.4 11:14:37 34° NW 11:14:56 35° NW 11:18:45 10° NNE
Cosmos 220 Rocket 4.4 11:16:00 41° WNW 11:16:01 41° WNW 11:20:06 10° N
Iridium 4 Rocket 3.1 11:14:09 24° SSW 11:16:58 65° W 11:21:24 10° N
USA 215 3.3 11:10:48 10° NE 11:17:15 64° NW 11:20:43 29° WSW
Unknown 4.4 11:16:58 34° NW 11:17:24 35° NW 11:21:13 10° NNE
Cosmos 1092 Rocket 4.1 11:16:09 27° SW 11:19:16 50° W 11:25:14 10° N
Atlas Centaur 2 3.0 11:15:58 32° WSW 11:19:29 62° S 11:27:39 10° ESE
GPS 2-04 Rocket1 2.9 11:20:19 47° SW 11:20:56 52° SSW 11:24:52 10° ESE
Cosmos 44 3.4 11:18:57 35° SW 11:20:57 64° WNW 11:25:50 10° NNE
ADEOS 3.8 11:16:33 10° N 11:21:31 46° WNW 11:23:33 31° WSW
Aureole 2 Rocket 3.6 11:21:38 15° SSE 11:23:27 31° ESE 11:25:55 10° NE
NOSS 3-2 (C) 4.4 11:22:50 24° WNW 11:24:34 27° NW 11:29:56 10° NNE
Meteor 1-27 Rocket 3.9 11:21:57 10° S 11:27:51 78° E 11:33:41 10° N
Meteor 2-6 Rocket 4.4 11:24:00 19° SSW 11:28:07 54° WNW 11:33:54 10° N
Cosmos 1500 4.3 11:25:38 10° N 11:29:15 45° E 11:32:50 10° SSE
Cosmos 1400 Rocket 3.3 11:30:26 35° W 11:30:57 37° WNW 11:34:36 10° N
Lacrosse 5 rocket 2.9 11:28:04 10° NNW 11:32:06 39° NE 11:36:18 10° ESE
PSLV R/B 4.2 11:28:37 10° S 11:32:36 44° W 11:36:34 10° NNW
ATLAS 3B R/B 3.3 11:29:54 25° W 11:32:50 35° NW 11:38:48 10° NNE
Meteor 1-10 Rocket 4.4 11:28:18 12° SSW 11:33:32 55° W 11:39:22 10° N
Cosmos 2369 Rocket 3.4 11:34:47 21° W 11:36:10 23° WNW 11:40:38 10° N
Cosmos 2242 Rocket 3.6 11:32:12 10° S 11:36:44 89° W 11:41:18 10° N
Hubble Space Telescope 1.8 11:36:31 23° SW 11:38:09 32° S 11:41:51 10° ESE
Cosmos 1812 2.6 11:34:26 10° S 11:38:17 75° W 11:42:08 10° N
Cosmos 1833 4.3 11:34:52 10° NNW 11:40:31 82° ENE 11:46:07 10° SSE
Meteor 1-11 Rocket 3.7 11:39:03 10° N 11:44:41 87° E 11:50:12 10° S
Cosmos 1703 Rocket 4.2 11:42:01 10° S 11:46:24 59° E 11:50:45 10° NNE
Cosmos 482 Debris 3.7 11:45:16 23° WNW 11:46:47 62° SW 11:50:53 10° SE
PSLV R/B 4.5 11:43:22 10° NNE 11:47:21 57° E 11:51:12 10° S
COSMOS 2487 2.3 11:44:03 10° NNW 11:47:29 61° WSW 11:50:53 10° S
Cosmos 1656 Rocket 4.2 11:47:47 15° SW 11:52:02 40° WNW 11:57:21 10° N
CZ-4B R/B 3.1 11:48:48 10° N 11:53:18 68° WNW 11:57:45 10° SSW
Chunghua 1 4.4 11:52:10 20° W 11:54:36 90° NNW 11:58:18 10° E
Cosmos 1536 3.0 11:51:37 10° N 11:55:36 77° E 11:59:34 10° S
